GSAT0202 (PRN E14)

Last updated on Jan. 23, 2021, 7:31 a.m. UTC

1 40129U 14050B   21022.49904585 -.00000108  00000-0  00000-0 0  9997
2 40129  50.5585 351.6833 1649578 107.3271 271.3599  1.85520207 43908
UTC
Height (km)
Latitude
Longitude
Inclination
Orbital Period
UTC large
Height (km)
Speed (km/s)
/
Latitude / Longitude
Inclination (degrees)
Orbital Period (minutes)
Azimuth
Elevation
Range (km)
Doppler Factor
iOS Compass Heading
iOS Angle

Next 30 passes for location: Hong Kong

Rise time Rise Azimuth (degrees) Set time Set Azimuth (degrees) Duration Max altitude (degrees)

No matching passes for this satellites